Weather History for KAPA - September, 2013

Change the Weather History Date:

Monday, September 16, 2013

  Actual Average Record
Temperature  
Mean Temperature 61 °F -  
Max Temperature 73 °F 72 °F 91 °F (2000)
Min Temperature 48 °F 45 °F 41 °F (1999)
Degree Days  
Heating Degree Days 4    
Month to date heating degree days 20  
Growing Degree Days 10 (Base 50)    
Moisture  
Dew Point 52 °F    
Average Humidity 72    
Maximum Humidity 100    
Minimum Humidity 44    
Precipitation  
Precipitation 0.01 in - - ()
Month to date precipitation 5.52  
Year to date precipitation 15.33  
Sea Level Pressure  
Sea Level Pressure 30.14 in    
Wind  
Wind Speed 4 mph (SSW)    
Max Wind Speed 18 mph    
Max Gust Speed 22 mph    
Visibility 9 miles    
Events      
Averages and records for this station are not official NWS values.
T = Trace of Precipitation, MM = Missing Value Source: NWS Daily Summary

Daily Weather History Graph

Daily Weather History Graph

Search for Another Location

Airport or City:

Trip Planner

Search our weather history database for the weather conditions in past years. The results will help you decide how hot, cold, wet, or windy it might be!

Date:

Astronomy

Sep. 16, 2013 Rise Set
Actual Time 6:41 AM MDT 7:05 PM MDT
Civil Twilight 6:14 AM MDT 7:32 PM MDT
Nautical Twilight 5:43 AM MDT 8:04 PM MDT
Astronomical Twilight 5:10 AM MDT 8:36 PM MDT
Moon 5:16 PM MDT (9/16) 3:31 AM MDT (9/16)
Length of Visible Light 13h 17m
Length of Day
12h 24m
Waxing Gibbous, 90% of the Moon is Illuminated
Sep 16
Waxing Gibbous
Sep 19
Full
Sep 26
Last Quarter
Oct 4
New
Oct 11
First Quarter

Hourly Weather History & Observations

Time (MDT) Temp. Dew Point Humidity Pressure Visibility Wind Dir Wind Speed Gust Speed Precip Events Conditions
12:53 AM 53.1 °F 52.0 °F 96% 30.22 in 10.0 mi ESE 4.6 mph - N/A   Mostly Cloudy
1:44 AM 51.8 °F 51.8 °F 100% 30.29 in 10.0 mi SE 3.5 mph - N/A   Mostly Cloudy
1:53 AM 52.0 °F 52.0 °F 100% 30.19 in 10.0 mi SE 3.5 mph - N/A   Mostly Cloudy
2:53 AM 52.0 °F 51.1 °F 97% 30.19 in 10.0 mi SE 6.9 mph - 0.01 in   Mostly Cloudy
3:53 AM 51.1 °F 50.0 °F 96% 30.17 in 10.0 mi Calm Calm - N/A   Mostly Cloudy
4:53 AM 50.0 °F 50.0 °F 100% 30.17 in 10.0 mi Calm Calm - N/A   Scattered Clouds
5:53 AM 48.9 °F 48.9 °F 100% 30.18 in 10.0 mi West 3.5 mph - N/A   Scattered Clouds
6:24 AM 48.2 °F 48.2 °F 100% 30.26 in 10.0 mi WSW 5.8 mph - N/A   Scattered Clouds
6:44 AM 50.0 °F 50.0 °F 100% 30.26 in 3.0 mi WSW 4.6 mph - N/A   Mostly Cloudy
6:53 AM 50.0 °F 50.0 °F 100% 30.19 in 4.0 mi WSW 4.6 mph - N/A   Overcast
7:17 AM 51.8 °F 51.8 °F 100% 30.27 in 5.0 mi SW 4.6 mph - N/A   Overcast
7:35 AM 51.8 °F 51.8 °F 100% 30.28 in 6.0 mi SW 4.6 mph - N/A   Overcast
7:53 AM 52.0 °F 52.0 °F 100% 30.20 in 6.0 mi WSW 6.9 mph - N/A   Overcast
8:53 AM 54.0 °F 52.0 °F 93% 30.19 in 7.0 mi Calm Calm - N/A   Mostly Cloudy
9:53 AM 55.9 °F 52.0 °F 87% 30.19 in 10.0 mi Calm Calm - N/A   Mostly Cloudy
10:29 AM 57.2 °F 51.8 °F 82% 30.27 in 10.0 mi WNW 4.6 mph - N/A   Scattered Clouds
10:53 AM 60.1 °F 53.1 °F 78% 30.16 in 10.0 mi Calm Calm - N/A   Scattered Clouds
11:53 AM 63.0 °F 53.1 °F 70% 30.13 in 10.0 mi Variable 3.5 mph - N/A   Scattered Clouds
12:53 PM 64.9 °F 53.1 °F 65% 30.09 in 10.0 mi Variable 3.5 mph - N/A   Scattered Clouds
1:53 PM 69.1 °F 54.0 °F 58% 30.04 in 10.0 mi Calm Calm - N/A   Scattered Clouds
2:53 PM 70.0 °F 54.0 °F 57% 30.01 in 10.0 mi Calm Calm - N/A   Scattered Clouds
3:53 PM 72.0 °F 48.9 °F 44% 29.99 in 10.0 mi South 11.5 mph 21.9 mph N/A   Mostly Cloudy
4:53 PM 68.0 °F 55.0 °F 63% 30.01 in 10.0 mi SSE 10.4 mph - N/A   Mostly Cloudy
5:53 PM 69.1 °F 52.0 °F 54% 30.00 in 10.0 mi SSW 6.9 mph - N/A   Scattered Clouds
6:53 PM 64.9 °F 53.1 °F 65% 30.01 in 10.0 mi SSW 6.9 mph - N/A   Scattered Clouds
7:53 PM 60.1 °F 54.0 °F 80% 30.03 in 10.0 mi South 6.9 mph - N/A   Scattered Clouds
8:53 PM 59.0 °F 53.1 °F 81% 30.03 in 10.0 mi South 9.2 mph - N/A   Scattered Clouds
9:53 PM 57.9 °F 53.1 °F 84% 30.03 in 10.0 mi South 8.1 mph - N/A   Scattered Clouds
10:53 PM 57.0 °F 53.1 °F 87% 30.02 in 10.0 mi SSE 10.4 mph - N/A   Partly Cloudy
11:53 PM 57.0 °F 52.0 °F 83% 30.01 in 10.0 mi SSE 8.1 mph - N/A   Partly Cloudy